Time,TemperatureF,DewpointF,PressureIn,WindDirection,WindDirectionDegrees,WindSpeedMPH,WindSpeedGustMPH,Humidity,HourlyPrecipIn,Conditions,Clouds,dailyrainin,SoftwareType,DateUTC
2013-05-25 00:02:00,49.0,32.9,27.26,West,270,1.8,3.1,55,-99.99,,,-99.99,WSDL version 420,2013-05-25 04:02:00,
2013-05-25 00:07:00,48.8,32.9,27.26,West,281,1.8,3.1,54,-99.99,,,-99.99,WSDL version 420,2013-05-25 04:07:00,
2013-05-25 00:12:00,48.6,32.9,27.26,West,270,1.6,3.1,55,-99.99,,,-99.99,WSDL version 420,2013-05-25 04:12:00,
2013-05-25 00:17:00,48.6,33.5,27.26,West,267,0.0,2.9,56,-99.99,,,-99.99,WSDL version 420,2013-05-25 04:17:00,
2013-05-25 00:22:00,48.4,33.6,27.26,West,270,0.4,2.0,56,-99.99,,,-99.99,WSDL version 420,2013-05-25 04:22:00,
2013-05-25 00:27:00,48.3,33.5,27.26,West,270,1.5,2.5,57,-99.99,,,-99.99,WSDL version 420,2013-05-25 04:27:00,
2013-05-25 00:32:00,48.0,33.7,27.29,West,273,1.5,2.7,57,-99.99,,,-99.99,WSDL version 420,2013-05-25 04:32:00,
2013-05-25 00:37:00,47.7,33.1,27.29,West,280,2.1,3.4,56,-99.99,,,-99.99,WSDL version 420,2013-05-25 04:37:00,
2013-05-25 00:42:00,47.4,32.9,27.29,WNW,283,2.5,3.6,58,-99.99,,,-99.99,WSDL version 420,2013-05-25 04:42:00,
2013-05-25 00:47:00,47.4,33.2,27.29,West,273,1.5,3.6,58,-99.99,,,-99.99,WSDL version 420,2013-05-25 04:47:00,
2013-05-25 00:52:00,47.4,33.3,27.29,West,276,2.6,3.8,58,-99.99,,,-99.99,WSDL version 420,2013-05-25 04:52:00,
2013-05-25 00:57:00,47.4,33.4,27.29,WNW,283,1.9,3.8,58,-99.99,,,-99.99,WSDL version 420,2013-05-25 04:57:00,
2013-05-25 01:02:00,47.3,33.3,27.29,WNW,290,2.4,3.1,58,-99.99,,,-99.99,WSDL version 420,2013-05-25 05:02:00,
2013-05-25 01:07:00,47.3,33.7,27.29,WNW,285,2.1,3.4,59,-99.99,,,-99.99,WSDL version 420,2013-05-25 05:07:00,
2013-05-25 01:12:00,47.3,33.9,27.29,West,276,1.0,3.4,59,-99.99,,,-99.99,WSDL version 420,2013-05-25 05:12:00,
2013-05-25 01:17:00,47.3,33.8,27.26,West,259,2.2,3.8,61,-99.99,,,-99.99,WSDL version 420,2013-05-25 05:17:00,
2013-05-25 01:22:00,47.3,33.6,27.26,West,270,0.4,3.8,58,-99.99,,,-99.99,WSDL version 420,2013-05-25 05:22:00,
2013-05-25 01:27:00,47.3,33.3,27.26,WSW,250,2.0,3.6,58,-99.99,,,-99.99,WSDL version 420,2013-05-25 05:27:00,
2013-05-25 01:32:00,47.3,33.8,27.29,WSW,240,1.6,4.0,58,-99.99,,,-99.99,WSDL version 420,2013-05-25 05:32:00,
2013-05-25 01:37:00,47.6,33.5,27.29,SW,233,2.0,4.0,58,-99.99,,,-99.99,WSDL version 420,2013-05-25 05:37:00,
2013-05-25 01:42:00,47.8,33.1,27.29,SW,230,2.9,4.9,56,-99.99,,,-99.99,WSDL version 420,2013-05-25 05:42:00,
2013-05-25 01:47:00,47.8,33.3,27.29,WNW,288,3.0,4.9,57,-99.99,,,-99.99,WSDL version 420,2013-05-25 05:47:00,
2013-05-25 01:52:00,48.0,32.7,27.29,NNW,332,2.0,4.3,57,-99.99,,,-99.99,WSDL version 420,2013-05-25 05:52:00,
2013-05-25 01:57:00,48.2,32.5,27.29,WSW,245,3.3,5.8,53,-99.99,,,-99.99,WSDL version 420,2013-05-25 05:57:00,
2013-05-25 02:02:00,48.6,32.0,27.26,West,270,1.9,5.8,52,-99.99,,,-99.99,WSDL version 420,2013-05-25 06:02:00,
2013-05-25 02:07:00,48.6,32.1,27.26,WSW,255,2.7,4.0,53,-99.99,,,-99.99,WSDL version 420,2013-05-25 06:07:00,
2013-05-25 02:12:00,48.7,31.5,27.26,West,262,2.5,4.9,51,-99.99,,,-99.99,WSDL version 420,2013-05-25 06:12:00,
2013-05-25 02:17:00,49.0,31.1,27.26,SW,222,3.0,5.4,49,-99.99,,,-99.99,WSDL version 420,2013-05-25 06:17:00,
2013-05-25 02:22:00,49.1,30.7,27.26,ENE,70,2.7,5.4,49,-99.99,,,-99.99,WSDL version 420,2013-05-25 06:22:00,
2013-05-25 02:27:00,49.1,30.7,27.26,West,273,2.3,4.9,49,-99.99,,,-99.99,WSDL version 420,2013-05-25 06:27:00,
2013-05-25 02:32:00,49.1,30.5,27.26,WNW,288,3.1,4.3,50,-99.99,,,-99.99,WSDL version 420,2013-05-25 06:32:00,
2013-05-25 02:37:00,48.9,30.6,27.26,SW,214,3.1,6.3,47,-99.99,,,-99.99,WSDL version 420,2013-05-25 06:37:00,
2013-05-25 02:42:00,49.0,30.4,27.26,West,281,0.8,6.3,49,-99.99,,,-99.99,WSDL version 420,2013-05-25 06:42:00,
2013-05-25 02:47:00,48.9,30.7,27.26,West,268,0.6,5.4,49,-99.99,,,-99.99,WSDL version 420,2013-05-25 06:47:00,
2013-05-25 02:52:00,48.8,30.6,27.26,WNW,284,2.2,2.9,49,-99.99,,,-99.99,WSDL version 420,2013-05-25 06:52:00,
2013-05-25 02:57:00,48.5,30.1,27.26,WNW,293,2.8,3.6,49,-99.99,,,-99.99,WSDL version 420,2013-05-25 06:57:00,
2013-05-25 03:02:00,48.2,29.8,27.26,WNW,290,2.5,3.6,49,-99.99,,,-99.99,WSDL version 420,2013-05-25 07:02:00,
2013-05-25 03:07:00,48.2,30.1,27.26,WNW,293,1.5,3.1,50,-99.99,,,-99.99,WSDL version 420,2013-05-25 07:07:00,
2013-05-25 03:12:00,48.1,30.3,27.26,WNW,293,0.0,2.2,51,-99.99,,,-99.99,WSDL version 420,2013-05-25 07:12:00,
2013-05-25 03:17:00,47.8,30.3,27.26,WNW,285,2.3,3.4,51,-99.99,,,-99.99,WSDL version 420,2013-05-25 07:17:00,
2013-05-25 03:22:00,47.5,30.2,27.26,West,273,2.6,3.4,51,-99.99,,,-99.99,WSDL version 420,2013-05-25 07:22:00,
2013-05-25 03:27:00,47.3,30.9,27.26,West,270,1.3,2.9,53,-99.99,,,-99.99,WSDL version 420,2013-05-25 07:27:00,
2013-05-25 03:32:00,47.1,30.9,27.29,WNW,285,2.2,2.9,53,-99.99,,,-99.99,WSDL version 420,2013-05-25 07:32:00,
2013-05-25 03:37:00,46.7,30.7,27.29,West,267,2.0,3.1,54,-99.99,,,-99.99,WSDL version 420,2013-05-25 07:37:00,
2013-05-25 03:42:00,46.5,30.6,27.29,WNW,283,1.0,3.1,54,-99.99,,,-99.99,WSDL version 420,2013-05-25 07:42:00,
2013-05-25 03:47:00,46.4,30.7,27.26,WNW,290,2.1,2.9,55,-99.99,,,-99.99,WSDL version 420,2013-05-25 07:47:00,
2013-05-25 03:52:00,46.1,30.7,27.26,West,270,0.8,2.9,55,-99.99,,,-99.99,WSDL version 420,2013-05-25 07:52:00,
2013-05-25 03:57:00,45.8,30.6,27.26,West,280,2.6,3.1,55,-99.99,,,-99.99,WSDL version 420,2013-05-25 07:57:00,
2013-05-25 04:02:00,45.5,30.7,27.26,West,273,2.6,3.6,56,-99.99,,,-99.99,WSDL version 420,2013-05-25 08:02:00,
2013-05-25 04:07:00,45.4,30.2,27.26,West,280,2.9,3.6,55,-99.99,,,-99.99,WSDL version 420,2013-05-25 08:07:00,
2013-05-25 04:12:00,45.3,30.0,27.26,West,276,2.9,3.6,55,-99.99,,,-99.99,WSDL version 420,2013-05-25 08:12:00,
2013-05-25 04:17:00,45.3,29.8,27.26,West,280,2.4,3.8,54,-99.99,,,-99.99,WSDL version 420,2013-05-25 08:17:00,
2013-05-25 04:22:00,45.4,30.3,27.26,West,273,2.2,4.0,55,-99.99,,,-99.99,WSDL version 420,2013-05-25 08:22:00,
2013-05-25 04:27:00,45.8,30.4,27.26,WSW,243,2.7,5.4,55,-99.99,,,-99.99,WSDL version 420,2013-05-25 08:27:00,
2013-05-25 04:32:00,46.2,29.7,27.26,SW,235,2.9,5.4,51,-99.99,,,-99.99,WSDL version 420,2013-05-25 08:32:00,
2013-05-25 04:37:00,46.6,29.5,27.26,WSW,245,2.2,4.0,51,-99.99,,,-99.99,WSDL version 420,2013-05-25 08:37:00,
2013-05-25 04:42:00,46.8,30.1,27.26,West,260,2.2,4.0,52,-99.99,,,-99.99,WSDL version 420,2013-05-25 08:42:00,
2013-05-25 04:47:00,46.7,30.2,27.26,SW,236,0.8,4.0,54,-99.99,,,-99.99,WSDL version 420,2013-05-25 08:47:00,
2013-05-25 04:52:00,46.5,30.8,27.26,WSW,248,1.7,3.4,55,-99.99,,,-99.99,WSDL version 420,2013-05-25 08:52:00,
2013-05-25 04:57:00,46.2,30.8,27.26,West,265,2.0,4.3,55,-99.99,,,-99.99,WSDL version 420,2013-05-25 08:57:00,
2013-05-25 05:02:00,46.0,30.1,27.26,WSW,258,2.1,4.3,54,-99.99,,,-99.99,WSDL version 420,2013-05-25 09:02:00,
2013-05-25 05:07:00,46.0,30.5,27.26,West,278,1.1,3.1,54,-99.99,,,-99.99,WSDL version 420,2013-05-25 09:07:00,
2013-05-25 05:12:00,45.9,29.7,27.26,WNW,293,0.5,3.1,52,-99.99,,,-99.99,WSDL version 420,2013-05-25 09:12:00,
2013-05-25 05:17:00,46.0,30.0,27.26,NW,310,0.0,2.7,54,-99.99,,,-99.99,WSDL version 420,2013-05-25 09:17:00,
2013-05-25 05:22:00,45.7,30.3,27.26,WNW,293,0.0,2.7,55,-99.99,,,-99.99,WSDL version 420,2013-05-25 09:22:00,
2013-05-25 05:27:00,45.5,30.2,27.26,WNW,295,0.6,2.5,54,-99.99,,,-99.99,WSDL version 420,2013-05-25 09:27:00,
2013-05-25 05:32:00,45.3,30.0,27.26,West,281,0.4,2.2,55,-99.99,,,-99.99,WSDL version 420,2013-05-25 09:32:00,
2013-05-25 05:37:00,45.1,29.9,27.26,SW,220,0.6,2.0,54,-99.99,,,-99.99,WSDL version 420,2013-05-25 09:37:00,
2013-05-25 05:42:00,45.1,29.7,27.26,West,270,1.8,2.9,55,-99.99,,,-99.99,WSDL version 420,2013-05-25 09:42:00,
2013-05-25 05:47:00,44.8,29.6,27.26,West,273,0.8,2.9,55,-99.99,,,-99.99,WSDL version 420,2013-05-25 09:47:00,
2013-05-25 05:52:00,44.6,29.8,27.26,West,267,0.7,2.7,56,-99.99,,,-99.99,WSDL version 420,2013-05-25 09:52:00,
2013-05-25 05:57:00,44.5,29.8,27.26,SW,225,0.4,2.5,56,-99.99,,,-99.99,WSDL version 420,2013-05-25 09:57:00,
2013-05-25 06:02:00,44.4,29.9,27.26,West,263,0.7,2.7,57,-99.99,,,-99.99,WSDL version 420,2013-05-25 10:02:00,
2013-05-25 06:07:00,44.2,29.5,27.26,ENE,70,0.4,2.7,56,-99.99,,,-99.99,WSDL version 420,2013-05-25 10:07:00,
2013-05-25 06:12:00,44.3,29.6,27.26,North,360,0.4,2.2,56,-99.99,,,-99.99,WSDL version 420,2013-05-25 10:12:00,
2013-05-25 06:17:00,44.2,29.8,27.26,West,270,0.0,2.2,57,-99.99,,,-99.99,WSDL version 420,2013-05-25 10:17:00,
2013-05-25 06:22:00,44.1,30.1,27.26,NW,312,1.7,3.4,58,-99.99,,,-99.99,WSDL version 420,2013-05-25 10:22:00,
2013-05-25 06:27:00,43.9,30.2,27.26,West,273,1.3,3.8,58,-99.99,,,-99.99,WSDL version 420,2013-05-25 10:27:00,
2013-05-25 06:32:00,43.9,30.0,27.29,NW,309,3.1,4.3,58,-99.99,,,-99.99,WSDL version 420,2013-05-25 10:32:00,
2013-05-25 06:37:00,44.1,30.4,27.29,West,260,3.4,5.8,58,-99.99,,,-99.99,WSDL version 420,2013-05-25 10:37:00,
2013-05-25 06:42:00,44.3,30.6,27.29,WNW,293,3.1,5.8,58,-99.99,,,-99.99,WSDL version 420,2013-05-25 10:42:00,
2013-05-25 06:47:00,44.5,30.6,27.29,WNW,300,3.0,4.9,58,-99.99,,,-99.99,WSDL version 420,2013-05-25 10:47:00,
2013-05-25 06:52:00,44.6,30.7,27.29,West,278,2.9,4.9,58,-99.99,,,-99.99,WSDL version 420,2013-05-25 10:52:00,
2013-05-25 06:57:00,44.7,30.6,27.29,West,278,2.5,5.8,58,-99.99,,,-99.99,WSDL version 420,2013-05-25 10:57:00,
2013-05-25 07:02:00,44.9,31.0,27.29,WNW,285,2.3,5.8,58,-99.99,,,-99.99,WSDL version 420,2013-05-25 11:02:00,
2013-05-25 07:07:00,45.0,31.3,27.29,WNW,298,2.6,4.0,58,-99.99,,,-99.99,WSDL version 420,2013-05-25 11:07:00,
2013-05-25 07:12:00,45.2,31.5,27.29,SSW,200,1.0,4.0,58,-99.99,,,-99.99,WSDL version 420,2013-05-25 11:12:00,
2013-05-25 07:17:00,45.6,32.1,27.29,WNW,290,1.8,3.8,59,-99.99,,,-99.99,WSDL version 420,2013-05-25 11:17:00,
2013-05-25 07:22:00,46.6,32.6,27.29,West,278,2.2,4.0,58,-99.99,,,-99.99,WSDL version 420,2013-05-25 11:22:00,
2013-05-25 07:27:00,46.8,32.3,27.29,NW,308,0.6,4.0,57,-99.99,,,-99.99,WSDL version 420,2013-05-25 11:27:00,
2013-05-25 07:32:00,46.6,31.9,27.29,West,276,1.1,3.4,56,-99.99,,,-99.99,WSDL version 420,2013-05-25 11:32:00,
2013-05-25 07:37:00,46.6,31.7,27.29,WNW,295,0.9,3.4,56,-99.99,,,-99.99,WSDL version 420,2013-05-25 11:37:00,
2013-05-25 07:42:00,46.8,32.1,27.29,SSW,194,1.0,3.4,56,-99.99,,,-99.99,WSDL version 420,2013-05-25 11:42:00,
2013-05-25 07:47:00,46.8,31.8,27.32,SSW,208,1.1,3.4,55,-99.99,,,-99.99,WSDL version 420,2013-05-25 11:47:00,
2013-05-25 07:52:00,47.0,31.4,27.32,SSW,208,2.6,4.0,54,-99.99,,,-99.99,WSDL version 420,2013-05-25 11:52:00,
2013-05-25 07:57:00,47.3,31.8,27.32,SSW,200,0.9,4.0,54,-99.99,,,-99.99,WSDL version 420,2013-05-25 11:57:00,
2013-05-25 08:02:00,47.8,32.4,27.32,West,268,1.4,4.3,55,-99.99,,,-99.99,WSDL version 420,2013-05-25 12:02:00,
2013-05-25 08:07:00,48.4,32.8,27.32,West,270,2.2,4.3,54,-99.99,,,-99.99,WSDL version 420,2013-05-25 12:07:00,
2013-05-25 08:12:00,48.8,33.0,27.32,West,268,1.1,3.4,54,-99.99,,,-99.99,WSDL version 420,2013-05-25 12:12:00,
2013-05-25 08:17:00,49.0,33.1,27.32,WSW,242,2.7,3.8,53,-99.99,,,-99.99,WSDL version 420,2013-05-25 12:17:00,
2013-05-25 08:22:00,49.3,33.0,27.32,WSW,238,1.7,3.8,53,-99.99,,,-99.99,WSDL version 420,2013-05-25 12:22:00,
2013-05-25 08:27:00,50.6,34.1,27.32,West,267,2.8,4.7,53,-99.99,,,-99.99,WSDL version 420,2013-05-25 12:27:00,
2013-05-25 08:32:00,52.7,35.5,27.32,WNW,285,2.7,4.7,51,-99.99,,,-99.99,WSDL version 420,2013-05-25 12:32:00,
2013-05-25 08:37:00,55.3,36.8,27.32,WSW,258,2.5,4.3,49,-99.99,,,-99.99,WSDL version 420,2013-05-25 12:37:00,
2013-05-25 08:42:00,57.1,36.8,27.32,West,259,1.3,6.0,46,-99.99,,,-99.99,WSDL version 420,2013-05-25 12:42:00,
2013-05-25 08:47:00,58.3,36.4,27.32,SSW,200,1.9,6.0,44,-99.99,,,-99.99,WSDL version 420,2013-05-25 12:47:00,
2013-05-25 08:52:00,59.5,36.9,27.32,WSW,248,1.9,4.3,43,-99.99,,,-99.99,WSDL version 420,2013-05-25 12:52:00,
2013-05-25 08:57:00,59.9,36.1,27.32,East,80,0.0,3.4,42,-99.99,,,-99.99,WSDL version 420,2013-05-25 12:57:00,
2013-05-25 09:02:00,61.4,37.3,27.32,SE,132,0.6,2.5,41,-99.99,,,-99.99,WSDL version 420,2013-05-25 13:02:00,
2013-05-25 09:07:00,62.0,36.6,27.32,SW,228,1.4,4.9,39,-99.99,,,-99.99,WSDL version 420,2013-05-25 13:07:00,
2013-05-25 09:12:00,62.8,36.3,27.32,South,170,0.7,4.9,38,-99.99,,,-99.99,WSDL version 420,2013-05-25 13:12:00,
2013-05-25 09:17:00,63.3,36.0,27.32,SSW,197,2.8,3.4,36,-99.99,,,-99.99,WSDL version 420,2013-05-25 13:17:00,
2013-05-25 09:22:00,63.1,35.4,27.32,South,169,1.8,3.4,36,-99.99,,,-99.99,WSDL version 420,2013-05-25 13:22:00,
2013-05-25 09:27:00,63.8,35.6,27.32,SW,228,2.5,3.6,35,-99.99,,,-99.99,WSDL version 420,2013-05-25 13:27:00,
2013-05-25 09:32:00,63.7,35.3,27.32,SW,215,2.4,4.9,35,-99.99,,,-99.99,WSDL version 420,2013-05-25 13:32:00,
2013-05-25 09:37:00,63.4,35.3,27.32,WNW,285,2.1,4.9,34,-99.99,,,-99.99,WSDL version 420,2013-05-25 13:37:00,
2013-05-25 09:42:00,62.5,34.6,27.32,SW,223,2.1,4.9,36,-99.99,,,-99.99,WSDL version 420,2013-05-25 13:42:00,
2013-05-25 09:47:00,61.3,33.8,27.34,South,188,1.8,5.4,36,-99.99,,,-99.99,WSDL version 420,2013-05-25 13:47:00,
2013-05-25 09:52:00,60.7,33.6,27.34,SSW,200,2.6,5.4,36,-99.99,,,-99.99,WSDL version 420,2013-05-25 13:52:00,
2013-05-25 09:57:00,61.4,34.6,27.34,NNE,18,1.4,4.0,36,-99.99,,,-99.99,WSDL version 420,2013-05-25 13:57:00,
2013-05-25 10:02:00,62.5,35.4,27.32,NE,53,2.6,4.9,35,-99.99,,,-99.99,WSDL version 420,2013-05-25 14:02:00,
2013-05-25 10:07:00,63.6,36.2,27.32,West,275,2.0,4.9,36,-99.99,,,-99.99,WSDL version 420,2013-05-25 14:07:00,
2013-05-25 10:12:00,63.7,36.1,27.32,NW,315,1.6,2.9,34,-99.99,,,-99.99,WSDL version 420,2013-05-25 14:12:00,
2013-05-25 10:17:00,64.1,35.9,27.34,WSW,243,1.5,3.8,35,-99.99,,,-99.99,WSDL version 420,2013-05-25 14:17:00,
2013-05-25 10:22:00,64.0,35.5,27.34,WSW,240,3.1,5.8,34,-99.99,,,-99.99,WSDL version 420,2013-05-25 14:22:00,
2013-05-25 10:27:00,63.7,35.8,27.34,NE,35,1.9,5.8,35,-99.99,,,-99.99,WSDL version 420,2013-05-25 14:27:00,
2013-05-25 10:32:00,64.4,36.3,27.34,SSW,205,2.6,3.6,35,-99.99,,,-99.99,WSDL version 420,2013-05-25 14:32:00,
2013-05-25 10:37:00,64.7,36.3,27.34,SW,225,2.2,4.7,34,-99.99,,,-99.99,WSDL version 420,2013-05-25 14:37:00,
2013-05-25 10:42:00,64.9,36.4,27.34,WNW,298,2.2,4.7,35,-99.99,,,-99.99,WSDL version 420,2013-05-25 14:42:00,
2013-05-25 10:47:00,66.1,37.1,27.32,WNW,290,1.1,6.5,33,-99.99,,,-99.99,WSDL version 420,2013-05-25 14:47:00,
2013-05-25 10:52:00,66.3,36.6,27.32,SSW,208,2.6,6.5,33,-99.99,,,-99.99,WSDL version 420,2013-05-25 14:52:00,
2013-05-25 10:57:00,67.6,37.9,27.32,NW,325,0.4,5.8,33,-99.99,,,-99.99,WSDL version 420,2013-05-25 14:57:00,
2013-05-25 11:02:00,68.7,38.2,27.34,NW,315,2.6,3.8,32,-99.99,,,-99.99,WSDL version 420,2013-05-25 15:02:00,
2013-05-25 11:07:00,67.7,36.5,27.34,West,268,2.4,3.8,32,-99.99,,,-99.99,WSDL version 420,2013-05-25 15:07:00,
2013-05-25 11:12:00,68.4,36.7,27.34,ESE,107,1.5,5.8,30,-99.99,,,-99.99,WSDL version 420,2013-05-25 15:12:00,
2013-05-25 11:17:00,68.3,35.9,27.34,WNW,288,2.3,5.8,28,-99.99,,,-99.99,WSDL version 420,2013-05-25 15:17:00,
2013-05-25 11:22:00,67.8,34.9,27.34,WSW,241,1.8,5.6,31,-99.99,,,-99.99,WSDL version 420,2013-05-25 15:22:00,
2013-05-25 11:27:00,68.8,36.6,27.34,SSW,203,1.7,5.6,32,-99.99,,,-99.99,WSDL version 420,2013-05-25 15:27:00,
2013-05-25 11:32:00,69.0,35.4,27.32,NW,308,2.2,4.7,29,-99.99,,,-99.99,WSDL version 420,2013-05-25 15:32:00,
2013-05-25 11:37:00,69.7,36.7,27.32,WNW,287,2.6,6.5,28,-99.99,,,-99.99,WSDL version 420,2013-05-25 15:37:00,
2013-05-25 11:42:00,69.4,36.2,27.32,SSW,200,2.2,6.5,32,-99.99,,,-99.99,WSDL version 420,2013-05-25 15:42:00,
2013-05-25 11:47:00,70.2,37.2,27.32,SSW,208,1.9,5.8,28,-99.99,,,-99.99,WSDL version 420,2013-05-25 15:47:00,
2013-05-25 11:52:00,70.4,35.4,27.32,NW,315,1.2,4.7,28,-99.99,,,-99.99,WSDL version 420,2013-05-25 15:52:00,
2013-05-25 11:57:00,70.3,34.5,27.32,North,3,2.1,5.4,28,-99.99,,,-99.99,WSDL version 420,2013-05-25 15:57:00,
2013-05-25 12:02:00,71.3,36.7,27.32,SSE,160,2.1,5.4,28,-99.99,,,-99.99,WSDL version 420,2013-05-25 16:02:00,
2013-05-25 12:07:00,70.8,34.5,27.32,East,100,2.6,6.0,27,-99.99,,,-99.99,WSDL version 420,2013-05-25 16:07:00,
2013-05-25 12:12:00,71.0,35.1,27.32,SSW,200,2.8,6.0,26,-99.99,,,-99.99,WSDL version 420,2013-05-25 16:12:00,
2013-05-25 12:17:00,71.3,35.3,27.32,WSW,250,3.2,5.6,27,-99.99,,,-99.99,WSDL version 420,2013-05-25 16:17:00,
2013-05-25 12:22:00,71.4,35.3,27.32,WSW,253,3.1,5.6,27,-99.99,,,-99.99,WSDL version 420,2013-05-25 16:22:00,
2013-05-25 12:27:00,72.5,36.5,27.32,West,278,1.6,4.3,26,-99.99,,,-99.99,WSDL version 420,2013-05-25 16:27:00,
2013-05-25 12:32:00,73.1,36.4,27.32,West,281,2.1,4.7,25,-99.99,,,-99.99,WSDL version 420,2013-05-25 16:32:00,
2013-05-25 12:37:00,73.2,36.5,27.32,SW,230,2.8,5.4,26,-99.99,,,-99.99,WSDL version 420,2013-05-25 16:37:00,
2013-05-25 12:42:00,73.3,36.8,27.32,SW,230,2.0,5.4,26,-99.99,,,-99.99,WSDL version 420,2013-05-25 16:42:00,
2013-05-25 12:47:00,73.3,35.8,27.32,SSE,165,2.3,3.6,25,-99.99,,,-99.99,WSDL version 420,2013-05-25 16:47:00,
2013-05-25 12:52:00,73.3,35.6,27.32,WNW,290,2.1,4.0,26,-99.99,,,-99.99,WSDL version 420,2013-05-25 16:52:00,
2013-05-25 12:57:00,73.5,35.1,27.32,SW,236,2.2,4.0,26,-99.99,,,-99.99,WSDL version 420,2013-05-25 16:57:00,
2013-05-25 13:02:00,74.1,35.9,27.32,WSW,240,2.7,5.4,25,-99.99,,,-99.99,WSDL version 420,2013-05-25 17:02:00,
2013-05-25 13:07:00,73.8,34.5,27.32,South,169,1.6,5.4,24,-99.99,,,-99.99,WSDL version 420,2013-05-25 17:07:00,
2013-05-25 13:12:00,74.3,35.7,27.32,WSW,256,1.5,4.0,25,-99.99,,,-99.99,WSDL version 420,2013-05-25 17:12:00,
2013-05-25 13:17:00,74.8,35.9,27.29,West,263,1.6,3.4,24,-99.99,,,-99.99,WSDL version 420,2013-05-25 17:17:00,
2013-05-25 13:22:00,74.9,35.7,27.29,West,259,2.6,6.0,23,-99.99,,,-99.99,WSDL version 420,2013-05-25 17:22:00,
2013-05-25 13:27:00,74.8,34.8,27.29,NE,39,0.6,6.0,23,-99.99,,,-99.99,WSDL version 420,2013-05-25 17:27:00,
2013-05-25 13:32:00,74.0,33.7,27.29,SW,233,1.7,4.7,23,-99.99,,,-99.99,WSDL version 420,2013-05-25 17:32:00,
2013-05-25 13:37:00,74.8,34.3,27.29,NW,310,2.4,4.7,22,-99.99,,,-99.99,WSDL version 420,2013-05-25 17:37:00,
2013-05-25 13:42:00,75.1,34.3,27.29,WNW,290,3.7,5.6,23,-99.99,,,-99.99,WSDL version 420,2013-05-25 17:42:00,
2013-05-25 13:47:00,74.6,34.4,27.29,SW,228,2.9,5.6,23,-99.99,,,-99.99,WSDL version 420,2013-05-25 17:47:00,
2013-05-25 13:52:00,75.5,34.0,27.29,NW,320,1.9,5.6,22,-99.99,,,-99.99,WSDL version 420,2013-05-25 17:52:00,
2013-05-25 13:57:00,76.2,35.0,27.29,NE,53,1.5,4.7,22,-99.99,,,-99.99,WSDL version 420,2013-05-25 17:57:00,
2013-05-25 14:02:00,75.9,34.3,27.29,WSW,250,1.8,4.3,22,-99.99,,,-99.99,WSDL version 420,2013-05-25 18:02:00,
2013-05-25 14:07:00,76.7,35.2,27.29,West,259,2.9,3.8,22,-99.99,,,-99.99,WSDL version 420,2013-05-25 18:07:00,
2013-05-25 14:12:00,76.5,34.9,27.29,WSW,238,2.2,4.0,22,-99.99,,,-99.99,WSDL version 420,2013-05-25 18:12:00,
2013-05-25 14:17:00,76.1,34.5,27.29,WSW,248,2.3,4.7,22,-99.99,,,-99.99,WSDL version 420,2013-05-25 18:17:00,
2013-05-25 14:22:00,77.0,35.1,27.29,NW,315,2.1,4.7,21,-99.99,,,-99.99,WSDL version 420,2013-05-25 18:22:00,
2013-05-25 14:27:00,77.1,34.2,27.29,NNW,335,2.0,4.5,21,-99.99,,,-99.99,WSDL version 420,2013-05-25 18:27:00,
2013-05-25 14:32:00,76.7,34.3,27.26,SSW,208,2.7,5.8,22,-99.99,,,-99.99,WSDL version 420,2013-05-25 18:32:00,
2013-05-25 14:37:00,76.9,35.0,27.26,SSW,193,0.9,6.0,21,-99.99,,,-99.99,WSDL version 420,2013-05-25 18:37:00,
2013-05-25 14:42:00,77.3,34.3,27.26,South,172,2.8,7.2,21,-99.99,,,-99.99,WSDL version 420,2013-05-25 18:42:00,
2013-05-25 14:47:00,77.3,34.6,27.26,West,278,1.2,7.2,22,-99.99,,,-99.99,WSDL version 420,2013-05-25 18:47:00,
2013-05-25 14:52:00,78.0,35.2,27.26,NW,312,1.8,6.5,21,-99.99,,,-99.99,WSDL version 420,2013-05-25 18:52:00,
2013-05-25 14:57:00,77.9,34.8,27.26,SSE,163,1.5,6.5,21,-99.99,,,-99.99,WSDL version 420,2013-05-25 18:57:00,
2013-05-25 15:02:00,78.8,35.3,27.26,WSW,255,2.6,4.9,21,-99.99,,,-99.99,WSDL version 420,2013-05-25 19:02:00,
2013-05-25 15:07:00,79.2,35.7,27.26,WSW,239,4.3,7.2,20,-99.99,,,-99.99,WSDL version 420,2013-05-25 19:07:00,
2013-05-25 15:12:00,78.9,35.7,27.26,NNW,345,0.0,7.2,21,-99.99,,,-99.99,WSDL version 420,2013-05-25 19:12:00,
2013-05-25 15:17:00,79.2,35.5,27.26,SW,236,2.5,5.4,20,-99.99,,,-99.99,WSDL version 420,2013-05-25 19:17:00,
2013-05-25 15:22:00,79.4,35.4,27.26,NNW,340,2.1,5.4,20,-99.99,,,-99.99,WSDL version 420,2013-05-25 19:22:00,
2013-05-25 15:27:00,79.7,35.3,27.26,SE,141,1.8,6.0,20,-99.99,,,-99.99,WSDL version 420,2013-05-25 19:27:00,
2013-05-25 15:32:00,80.0,35.6,27.26,NW,315,1.3,6.0,21,-99.99,,,-99.99,WSDL version 420,2013-05-25 19:32:00,
2013-05-25 15:37:00,80.2,36.3,27.26,SW,231,2.7,5.4,20,-99.99,,,-99.99,WSDL version 420,2013-05-25 19:37:00,
2013-05-25 15:42:00,80.2,35.8,27.26,NNW,341,3.3,12.3,20,-99.99,,,-99.99,WSDL version 420,2013-05-25 19:42:00,
2013-05-25 15:47:00,79.7,35.1,27.26,SE,128,2.8,12.3,20,-99.99,,,-99.99,WSDL version 420,2013-05-25 19:47:00,
2013-05-25 15:52:00,79.1,34.7,27.26,WSW,242,3.0,5.4,20,-99.99,,,-99.99,WSDL version 420,2013-05-25 19:52:00,
2013-05-25 15:57:00,79.3,34.8,27.26,East,93,2.7,5.6,20,-99.99,,,-99.99,WSDL version 420,2013-05-25 19:57:00,
2013-05-25 16:02:00,79.3,34.8,27.26,ESE,110,3.9,10.3,20,-99.99,,,-99.99,WSDL version 420,2013-05-25 20:02:00,
2013-05-25 16:07:00,78.3,33.6,27.26,West,265,2.1,10.3,20,-99.99,,,-99.99,WSDL version 420,2013-05-25 20:07:00,
2013-05-25 16:12:00,78.5,34.5,27.26,North,8,1.1,7.4,21,-99.99,,,-99.99,WSDL version 420,2013-05-25 20:12:00,
2013-05-25 16:17:00,78.9,34.4,27.26,SSW,200,3.1,7.4,20,-99.99,,,-99.99,WSDL version 420,2013-05-25 20:17:00,
2013-05-25 16:22:00,79.2,34.9,27.26,SW,217,2.1,6.5,21,-99.99,,,-99.99,WSDL version 420,2013-05-25 20:22:00,
2013-05-25 16:27:00,78.7,34.3,27.26,WSW,256,3.4,6.5,20,-99.99,,,-99.99,WSDL version 420,2013-05-25 20:27:00,
2013-05-25 16:32:00,79.0,34.6,27.26,WSW,258,1.5,5.4,20,-99.99,,,-99.99,WSDL version 420,2013-05-25 20:32:00,
2013-05-25 16:37:00,78.7,34.5,27.26,SW,219,3.0,6.0,20,-99.99,,,-99.99,WSDL version 420,2013-05-25 20:37:00,
2013-05-25 16:42:00,79.0,34.5,27.26,SSE,168,2.8,6.5,20,-99.99,,,-99.99,WSDL version 420,2013-05-25 20:42:00,
2013-05-25 16:47:00,79.1,34.6,27.26,SSE,148,2.3,6.5,20,-99.99,,,-99.99,WSDL version 420,2013-05-25 20:47:00,
2013-05-25 16:52:00,78.6,34.6,27.26,SSW,211,1.9,6.3,21,-99.99,,,-99.99,WSDL version 420,2013-05-25 20:52:00,
2013-05-25 16:57:00,78.8,35.4,27.26,SW,228,0.5,4.9,21,-99.99,,,-99.99,WSDL version 420,2013-05-25 20:57:00,
2013-05-25 17:02:00,78.3,34.6,27.26,South,183,3.5,6.5,20,-99.99,,,-99.99,WSDL version 420,2013-05-25 21:02:00,
2013-05-25 17:07:00,77.7,33.7,27.26,WSW,245,0.7,6.5,21,-99.99,,,-99.99,WSDL version 420,2013-05-25 21:07:00,
2013-05-25 17:12:00,77.4,33.5,27.26,East,79,3.2,5.6,20,-99.99,,,-99.99,WSDL version 420,2013-05-25 21:12:00,
2013-05-25 17:17:00,77.0,32.9,27.26,SSE,150,3.5,5.6,20,-99.99,,,-99.99,WSDL version 420,2013-05-25 21:17:00,
2013-05-25 17:22:00,76.6,33.6,27.26,SW,225,2.4,4.5,21,-99.99,,,-99.99,WSDL version 420,2013-05-25 21:22:00,
2013-05-25 17:27:00,76.1,32.7,27.26,NW,305,1.9,5.4,21,-99.99,,,-99.99,WSDL version 420,2013-05-25 21:27:00,
2013-05-25 17:32:00,75.3,32.7,27.26,South,175,2.4,5.4,21,-99.99,,,-99.99,WSDL version 420,2013-05-25 21:32:00,
2013-05-25 17:37:00,74.5,32.0,27.26,NE,53,1.2,3.8,21,-99.99,,,-99.99,WSDL version 420,2013-05-25 21:37:00,
2013-05-25 17:42:00,73.5,31.5,27.26,SSE,153,2.5,4.3,22,-99.99,,,-99.99,WSDL version 420,2013-05-25 21:42:00,
2013-05-25 17:47:00,72.7,31.7,27.26,SSW,211,2.5,4.3,22,-99.99,,,-99.99,WSDL version 420,2013-05-25 21:47:00,
2013-05-25 17:52:00,72.1,31.4,27.26,NW,315,0.7,4.0,23,-99.99,,,-99.99,WSDL version 420,2013-05-25 21:52:00,
2013-05-25 17:57:00,71.5,31.8,27.26,WSW,244,1.9,4.0,23,-99.99,,,-99.99,WSDL version 420,2013-05-25 21:57:00,
2013-05-25 18:02:00,70.9,31.3,27.26,West,262,2.1,4.3,23,-99.99,,,-99.99,WSDL version 420,2013-05-25 22:02:00,
2013-05-25 18:07:00,70.2,30.7,27.26,SW,215,1.5,4.3,23,-99.99,,,-99.99,WSDL version 420,2013-05-25 22:07:00,
2013-05-25 18:12:00,69.5,30.1,27.26,WSW,240,2.1,6.3,23,-99.99,,,-99.99,WSDL version 420,2013-05-25 22:12:00,
2013-05-25 18:17:00,69.0,30.2,27.26,SSE,148,2.0,6.3,24,-99.99,,,-99.99,WSDL version 420,2013-05-25 22:17:00,
2013-05-25 18:22:00,68.6,31.6,27.26,SW,217,1.5,4.9,25,-99.99,,,-99.99,WSDL version 420,2013-05-25 22:22:00,
2013-05-25 18:27:00,68.0,31.6,27.26,West,263,0.9,3.8,26,-99.99,,,-99.99,WSDL version 420,2013-05-25 22:27:00,
2013-05-25 18:32:00,67.8,31.2,27.26,SW,233,1.9,2.9,26,-99.99,,,-99.99,WSDL version 420,2013-05-25 22:32:00,
2013-05-25 18:37:00,67.3,31.0,27.26,SSW,211,1.8,3.4,26,-99.99,,,-99.99,WSDL version 420,2013-05-25 22:37:00,
2013-05-25 18:42:00,67.0,30.8,27.26,SSW,213,1.7,4.5,26,-99.99,,,-99.99,WSDL version 420,2013-05-25 22:42:00,
2013-05-25 18:47:00,66.6,30.6,27.26,WSW,239,1.8,4.9,26,-99.99,,,-99.99,WSDL version 420,2013-05-25 22:47:00,
2013-05-25 18:52:00,66.2,31.7,27.26,WSW,243,1.6,4.9,30,-99.99,,,-99.99,WSDL version 420,2013-05-25 22:52:00,
2013-05-25 18:57:00,65.8,31.8,27.26,NW,307,0.9,3.6,29,-99.99,,,-99.99,WSDL version 420,2013-05-25 22:57:00,
2013-05-25 19:02:00,65.5,32.0,27.26,SSW,213,1.8,3.6,27,-99.99,,,-99.99,WSDL version 420,2013-05-25 23:02:00,
2013-05-25 19:07:00,65.2,32.3,27.26,NW,318,1.1,2.9,30,-99.99,,,-99.99,WSDL version 420,2013-05-25 23:07:00,
2013-05-25 19:12:00,64.9,32.6,27.26,SSW,211,0.8,2.9,29,-99.99,,,-99.99,WSDL version 420,2013-05-25 23:12:00,
2013-05-25 19:17:00,64.5,32.8,27.26,WSW,238,1.4,2.9,30,-99.99,,,-99.99,WSDL version 420,2013-05-25 23:17:00,
2013-05-25 19:22:00,64.0,32.7,27.26,West,262,1.0,2.9,31,-99.99,,,-99.99,WSDL version 420,2013-05-25 23:22:00,
2013-05-25 19:27:00,63.7,34.1,27.26,South,190,1.1,2.9,33,-99.99,,,-99.99,WSDL version 420,2013-05-25 23:27:00,
2013-05-25 19:32:00,63.4,34.1,27.26,SW,219,1.3,5.4,32,-99.99,,,-99.99,WSDL version 420,2013-05-25 23:32:00,
2013-05-25 19:37:00,63.1,33.0,27.26,SSW,198,2.6,6.0,32,-99.99,,,-99.99,WSDL version 420,2013-05-25 23:37:00,
2013-05-25 19:42:00,62.9,33.2,27.26,SSW,213,1.9,6.0,32,-99.99,,,-99.99,WSDL version 420,2013-05-25 23:42:00,
2013-05-25 19:47:00,62.6,32.4,27.26,West,273,1.2,3.8,31,-99.99,,,-99.99,WSDL version 420,2013-05-25 23:47:00,
2013-05-25 19:52:00,62.4,32.8,27.26,West,268,1.3,3.8,34,-99.99,,,-99.99,WSDL version 420,2013-05-25 23:52:00,
2013-05-25 19:57:00,62.0,33.7,27.26,West,276,1.9,4.0,35,-99.99,,,-99.99,WSDL version 420,2013-05-25 23:57:00,
2013-05-25 20:02:00,61.6,33.7,27.29,WSW,248,1.7,4.0,35,-99.99,,,-99.99,WSDL version 420,2013-05-26 00:02:00,
2013-05-25 20:07:00,61.4,33.1,27.29,SW,219,0.8,3.6,35,-99.99,,,-99.99,WSDL version 420,2013-05-26 00:07:00,
2013-05-25 20:12:00,61.1,33.6,27.29,West,280,1.3,2.9,36,-99.99,,,-99.99,WSDL version 420,2013-05-26 00:12:00,
2013-05-25 20:17:00,61.0,32.7,27.26,SW,215,2.1,4.0,34,-99.99,,,-99.99,WSDL version 420,2013-05-26 00:17:00,
2013-05-25 20:22:00,60.8,32.5,27.26,West,262,2.8,4.9,34,-99.99,,,-99.99,WSDL version 420,2013-05-26 00:22:00,
2013-05-25 20:27:00,60.6,32.8,27.26,West,265,1.8,4.9,35,-99.99,,,-99.99,WSDL version 420,2013-05-26 00:27:00,
2013-05-25 20:32:00,60.4,32.8,27.26,SW,236,2.6,3.6,35,-99.99,,,-99.99,WSDL version 420,2013-05-26 00:32:00,
2013-05-25 20:37:00,60.2,32.7,27.26,West,260,1.6,3.6,36,-99.99,,,-99.99,WSDL version 420,2013-05-26 00:37:00,
2013-05-25 20:42:00,60.0,32.8,27.26,SW,231,2.7,4.0,35,-99.99,,,-99.99,WSDL version 420,2013-05-26 00:42:00,
2013-05-25 20:47:00,59.8,32.9,27.26,WSW,238,2.8,4.0,36,-99.99,,,-99.99,WSDL version 420,2013-05-26 00:47:00,
2013-05-25 20:52:00,59.6,33.1,27.26,West,275,0.5,4.0,38,-99.99,,,-99.99,WSDL version 420,2013-05-26 00:52:00,
2013-05-25 20:57:00,59.3,34.1,27.26,West,270,0.0,3.1,40,-99.99,,,-99.99,WSDL version 420,2013-05-26 00:57:00,
2013-05-25 21:02:00,59.1,34.6,27.29,WNW,290,0.7,2.9,40,-99.99,,,-99.99,WSDL version 420,2013-05-26 01:02:00,
2013-05-25 21:07:00,58.7,34.8,27.29,West,273,1.1,2.9,40,-99.99,,,-99.99,WSDL version 420,2013-05-26 01:07:00,
2013-05-25 21:12:00,58.6,34.4,27.29,SW,235,2.4,3.1,40,-99.99,,,-99.99,WSDL version 420,2013-05-26 01:12:00,
2013-05-25 21:17:00,58.6,34.7,27.29,West,270,1.6,3.4,41,-99.99,,,-99.99,WSDL version 420,2013-05-26 01:17:00,
2013-05-25 21:22:00,58.4,35.1,27.29,West,278,1.8,3.4,42,-99.99,,,-99.99,WSDL version 420,2013-05-26 01:22:00,
2013-05-25 21:27:00,58.1,34.7,27.29,WNW,283,1.6,3.1,42,-99.99,,,-99.99,WSDL version 420,2013-05-26 01:27:00,
2013-05-25 21:32:00,58.1,34.4,27.29,WSW,253,2.6,4.3,40,-99.99,,,-99.99,WSDL version 420,2013-05-26 01:32:00,
2013-05-25 21:37:00,58.1,34.7,27.29,WSW,256,1.0,4.3,41,-99.99,,,-99.99,WSDL version 420,2013-05-26 01:37:00,
2013-05-25 21:42:00,58.0,35.0,27.29,WNW,290,0.6,3.1,42,-99.99,,,-99.99,WSDL version 420,2013-05-26 01:42:00,
2013-05-25 21:47:00,57.8,35.0,27.26,WNW,283,0.9,2.5,42,-99.99,,,-99.99,WSDL version 420,2013-05-26 01:47:00,
2013-05-25 21:52:00,57.6,34.6,27.26,SW,233,1.6,3.4,42,-99.99,,,-99.99,WSDL version 420,2013-05-26 01:52:00,
2013-05-25 21:57:00,57.6,34.3,27.26,WSW,245,0.9,3.8,41,-99.99,,,-99.99,WSDL version 420,2013-05-26 01:57:00,
2013-05-25 22:02:00,57.6,34.2,27.29,SW,228,0.0,3.8,41,-99.99,,,-99.99,WSDL version 420,2013-05-26 02:02:00,
2013-05-25 22:07:00,57.7,33.8,27.29,SW,225,0.0,3.8,42,-99.99,,,-99.99,WSDL version 420,2013-05-26 02:07:00,
2013-05-25 22:12:00,57.7,34.2,27.29,SSW,198,0.0,3.8,40,-99.99,,,-99.99,WSDL version 420,2013-05-26 02:12:00,
2013-05-25 22:17:00,57.7,33.8,27.26,SSW,196,1.9,2.9,39,-99.99,,,-99.99,WSDL version 420,2013-05-26 02:17:00,
2013-05-25 22:22:00,57.9,33.8,27.26,West,268,0.0,2.9,41,-99.99,,,-99.99,WSDL version 420,2013-05-26 02:22:00,
2013-05-25 22:27:00,57.8,33.7,27.26,West,264,1.5,4.0,40,-99.99,,,-99.99,WSDL version 420,2013-05-26 02:27:00,
2013-05-25 22:32:00,57.9,33.5,27.26,West,268,0.0,4.0,40,-99.99,,,-99.99,WSDL version 420,2013-05-26 02:32:00,
2013-05-25 22:37:00,57.6,34.2,27.26,West,273,0.4,2.9,42,-99.99,,,-99.99,WSDL version 420,2013-05-26 02:37:00,
2013-05-25 22:42:00,57.3,34.4,27.26,West,276,2.6,4.9,42,-99.99,,,-99.99,WSDL version 420,2013-05-26 02:42:00,
2013-05-25 22:47:00,57.2,34.1,27.26,WSW,258,0.5,4.9,43,-99.99,,,-99.99,WSDL version 420,2013-05-26 02:47:00,
2013-05-25 22:52:00,56.9,34.8,27.26,WNW,290,0.0,3.4,44,-99.99,,,-99.99,WSDL version 420,2013-05-26 02:52:00,
2013-05-25 22:57:00,56.6,35.3,27.26,WNW,285,0.5,2.5,46,-99.99,,,-99.99,WSDL version 420,2013-05-26 02:57:00,
2013-05-25 23:02:00,56.3,35.3,27.26,West,259,0.0,2.0,45,-99.99,,,-99.99,WSDL version 420,2013-05-26 03:02:00,
2013-05-25 23:07:00,55.9,34.9,27.26,WSW,250,0.0,0.0,45,-99.99,,,-99.99,WSDL version 420,2013-05-26 03:07:00,
2013-05-25 23:12:00,55.5,34.4,27.26,West,270,1.6,3.1,44,-99.99,,,-99.99,WSDL version 420,2013-05-26 03:12:00,
2013-05-25 23:17:00,55.1,33.6,27.26,West,281,2.2,3.1,44,-99.99,,,-99.99,WSDL version 420,2013-05-26 03:17:00,
2013-05-25 23:22:00,54.8,33.6,27.26,West,280,0.0,2.9,46,-99.99,,,-99.99,WSDL version 420,2013-05-26 03:22:00,
2013-05-25 23:27:00,54.6,34.2,27.26,West,270,0.0,2.5,46,-99.99,,,-99.99,WSDL version 420,2013-05-26 03:27:00,
2013-05-25 23:32:00,54.4,34.1,27.26,WNW,284,0.0,2.7,46,-99.99,,,-99.99,WSDL version 420,2013-05-26 03:32:00,
2013-05-25 23:37:00,54.1,34.3,27.26,West,270,2.3,3.4,47,-99.99,,,-99.99,WSDL version 420,2013-05-26 03:37:00,
2013-05-25 23:42:00,54.3,34.5,27.26,West,270,1.9,3.4,47,-99.99,,,-99.99,WSDL version 420,2013-05-26 03:42:00,
2013-05-25 23:47:00,54.4,35.1,27.26,West,270,0.7,3.1,48,-99.99,,,-99.99,WSDL version 420,2013-05-26 03:47:00,
2013-05-25 23:52:00,54.5,35.3,27.26,West,270,1.1,2.7,48,-99.99,,,-99.99,WSDL version 420,2013-05-26 03:52:00,
2013-05-25 23:57:00,54.7,35.4,27.26,West,270,1.6,2.5,48,-99.99,,,-99.99,WSDL version 420,2013-05-26 03:57:00,